Location: Holyhead Bay
(53.3667°N, 4.6667°W)
Time: 22:20:55
(UTC+00:00)

Cosmos 1408 Rocket - Pass Details

Date: 15 April 2021
Orbit: 601 x 631 km, 82.6° (Epoch: 16 May)

Event Time Altitude Azimuth Distance (km) Brightness Sun altitude
Rises 21:09:53 0° 359° (N) 2,867 7.6 -15.0°
Reaches altitude 10° 21:12:49 10° 20° (NNE) 1,958 6.4 -15.3°
Maximum altitude 21:15:38 17° 61° (ENE) 1,558 5.4 -15.6°
Enters shadow 21:16:55 15° 82° (E) 1,647 5.4 -15.8°
